• In Sweden
  • List of Countries
  • For 7 days
  • Water Temperature
  • Satellite Maps
  • Weather Map
  • Weather Widgets
  • user-avatar
    Login

    Hourly Weather Pamporovo

    Today, 24 September, Monday

    Time Temperature Precipitation Wind Pressure Humidity
    00:00 +12°C° 0 mm 1 mps 629 mmHg 64%
    01:00 +12°C° 0 mm 1 mps 628 mmHg 64%
    02:00 +12°C° 0 mm 1 mps 628 mmHg 64%
    03:00 +11°C° 0 mm 1 mps 627 mmHg 64%
    04:00 +11°C° 0 mm 1 mps 627 mmHg 65%
    05:00 +11°C° 0 mm 1 mps 627 mmHg 65%
    06:00 +12°C° 0 mm 1 mps 627 mmHg 61%
    07:00 +14°C° 0 mm 1 mps 627 mmHg 57%
    08:00 +15°C° 0 mm 1 mps 628 mmHg 52%
    09:00 +17°C° 0 mm 2 mps 628 mmHg 46%
    10:00 +19°C° 0 mm 2 mps 629 mmHg 40%
    11:00 +22°C° 0 mm 3 mps 629 mmHg 35%
    12:00 +22°C° 0 mm 3 mps 629 mmHg 33%
    13:00 +24°C° 0 mm 3 mps 629 mmHg 31%
    14:00 +25°C° 0 mm 3 mps 629 mmHg 30%
    15:00 +24°C° 0 mm 3 mps 629 mmHg 32%
    16:00 +22°C° 0 mm 3 mps 629 mmHg 35%
    17:00 +21°C° 0 mm 3 mps 628 mmHg 38%
    18:00 +18°C° 0 mm 3 mps 628 mmHg 46%
    19:00 +16°C° 0 mm 3 mps 628 mmHg 54%
    20:00 +12°C° 0 mm 3 mps 628 mmHg 63%
    21:00 +11°C° 0 mm 3 mps 628 mmHg 64%
    22:00 +9°C° 0 mm 3 mps 628 mmHg 66%
    23:00 +8°C° 0 mm 3 mps 629 mmHg 68%

    Tomorrow, 25 September, Tuesday

    Time Temperature Precipitation Wind Pressure Humidity
    00:00 +7°C° 0.1 mm 3 mps 629 mmHg 67%
    01:00 +6°C° 0.1 mm 4 mps 629 mmHg 66%
    02:00 +5°C° 0.1 mm 4 mps 629 mmHg 66%
    03:00 +5°C° 0 mm 4 mps 629 mmHg 64%
    04:00 +4°C° 0 mm 4 mps 630 mmHg 62%
    05:00 +4°C° 0 mm 4 mps 630 mmHg 61%
    06:00 +4°C° 0 mm 4 mps 630 mmHg 58%
    07:00 +4°C° 0 mm 4 mps 631 mmHg 56%
    08:00 +3°C° 0 mm 4 mps 631 mmHg 53%
    09:00 +5°C° 0 mm 4 mps 632 mmHg 45%
    10:00 +6°C° 0 mm 4 mps 632 mmHg 38%
    11:00 +8°C° 0 mm 4 mps 633 mmHg 30%
    12:00 +10°C° 0 mm 4 mps 633 mmHg 28%
    13:00 +10°C° 0 mm 4 mps 633 mmHg 26%
    14:00 +11°C° 0 mm 4 mps 633 mmHg 24%
    15:00 +10°C° 0 mm 4 mps 633 mmHg 26%
    16:00 +8°C° 0 mm 4 mps 633 mmHg 27%
    17:00 +7°C° 0 mm 4 mps 632 mmHg 29%
    18:00 +5°C° 0 mm 4 mps 632 mmHg 33%
    19:00 +3°C° 0 mm 3 mps 632 mmHg 36%
    20:00 +2°C° 0 mm 3 mps 632 mmHg 40%
    21:00 +1°C° 0 mm 3 mps 632 mmHg 41%
    22:00 0°C° 0 mm 3 mps 632 mmHg 43%
    23:00 0°C° 0 mm 3 mps 632 mmHg 44%

    Day after tomorrow, 26 September, Wednesday

    Time Temperature Precipitation Wind Pressure Humidity
    00:00 -1°C° 0 mm 3 mps 632 mmHg 46%
    01:00 -1°C° 0 mm 3 mps 632 mmHg 47%
    02:00 -2°C° 0 mm 3 mps 632 mmHg 49%
    03:00 -2°C° 0 mm 3 mps 632 mmHg 51%
    04:00 -2°C° 0 mm 3 mps 632 mmHg 53%
    05:00 -4°C° 0 mm 3 mps 632 mmHg 55%
    06:00 -2°C° 0 mm 3 mps 633 mmHg 53%
    07:00 -2°C° 0 mm 4 mps 633 mmHg 50%
    08:00 -1°C° 0 mm 4 mps 634 mmHg 48%
    09:00 +1°C° 0 mm 4 mps 634 mmHg 43%
    10:00 +2°C° 0 mm 5 mps 635 mmHg 39%
    11:00 +5°C° 0 mm 5 mps 635 mmHg 34%
    12:00 +4°C° 0 mm 6 mps 635 mmHg 33%
    13:00 +5°C° 0 mm 6 mps 635 mmHg 32%
    14:00 +5°C° 0 mm 6 mps 635 mmHg 32%
    15:00 +4°C° 0 mm 6 mps 634 mmHg 34%
    16:00 +4°C° 0 mm 6 mps 634 mmHg 36%
    17:00 +3°C° 0 mm 6 mps 634 mmHg 38%
    18:00 +1°C° 0 mm 5 mps 633 mmHg 43%
    19:00 0°C° 0 mm 5 mps 633 mmHg 48%
    20:00 -2°C° 0 mm 4 mps 633 mmHg 53%
    21:00 -2°C° 0 mm 4 mps 633 mmHg 55%
    22:00 -3°C° 0 mm 4 mps 633 mmHg 57%
    23:00 -3°C° 0 mm 4 mps 633 mmHg 59%

    27 September, Thursday

    Time Temperature Precipitation Wind Pressure Humidity
    00:00 -4°C° 0 mm 4 mps 633 mmHg 60%
    01:00 -4°C° 0 mm 4 mps 632 mmHg 61%
    02:00 -4°C° 0 mm 4 mps 632 mmHg 62%
    03:00 -5°C° 0 mm 4 mps 632 mmHg 62%
    04:00 -5°C° 0 mm 4 mps 631 mmHg 62%
    05:00 -5°C° 0 mm 4 mps 631 mmHg 62%
    06:00 -5°C° 0 mm 5 mps 631 mmHg 57%
    07:00 -4°C° 0 mm 5 mps 632 mmHg 52%
    08:00 -1°C° 0 mm 5 mps 632 mmHg 47%
    09:00 -1°C° 0 mm 6 mps 632 mmHg 42%
    10:00 +2°C° 0 mm 6 mps 633 mmHg 36%
    11:00 +4°C° 0 mm 7 mps 633 mmHg 31%
    12:00 +5°C° 0 mm 7 mps 633 mmHg 29%
    13:00 +5°C° 0 mm 7 mps 632 mmHg 27%
    14:00 +6°C° 0 mm 7 mps 632 mmHg 25%
    15:00 +7°C° 0 mm 6 mps 632 mmHg 26%
    16:00 +5°C° 0 mm 6 mps 631 mmHg 27%
    17:00 +5°C° 0 mm 6 mps 631 mmHg 28%
    18:00 +3°C° 0 mm 5 mps 630 mmHg 33%
    19:00 +1°C° 0 mm 4 mps 630 mmHg 37%
    20:00 -1°C° 0 mm 4 mps 629 mmHg 42%
    21:00 -1°C° 0 mm 4 mps 629 mmHg 43%
    22:00 -1°C° 0 mm 4 mps 629 mmHg 44%
    23:00 -2°C° 0 mm 4 mps 628 mmHg 46%

    28 September, Friday

    Time Temperature Precipitation Wind Pressure Humidity
    00:00 -2°C° 0 mm 4 mps 628 mmHg 44%
    01:00 -2°C° 0 mm 4 mps 628 mmHg 42%
    02:00 -2°C° 0 mm 4 mps 628 mmHg 41%
    03:00 -2°C° 0 mm 4 mps 627 mmHg 40%
    04:00 -1°C° 0 mm 3 mps 627 mmHg 39%
    05:00 -1°C° 0 mm 3 mps 627 mmHg 38%
    06:00 0°C° 0 mm 3 mps 627 mmHg 36%
    07:00 0°C° 0 mm 4 mps 628 mmHg 35%
    08:00 +3°C° 0 mm 4 mps 628 mmHg 34%
    09:00 +5°C° 0 mm 4 mps 629 mmHg 34%
    10:00 +6°C° 0 mm 4 mps 629 mmHg 33%
    11:00 +8°C° 0 mm 4 mps 630 mmHg 33%
    12:00 +10°C° 0 mm 4 mps 630 mmHg 32%
    13:00 +11°C° 0 mm 4 mps 629 mmHg 32%
    14:00 +12°C° 0 mm 4 mps 629 mmHg 32%
    15:00 +11°C° 0 mm 3 mps 629 mmHg 34%
    16:00 +10°C° 0 mm 3 mps 628 mmHg 37%
    17:00 +10°C° 0 mm 2 mps 628 mmHg 39%
    18:00 +8°C° 0 mm 2 mps 627 mmHg 43%
    19:00 +7°C° 0 mm 2 mps 627 mmHg 47%
    20:00 +5°C° 0 mm 2 mps 627 mmHg 51%
    21:00 +5°C° 0 mm 2 mps 626 mmHg 55%
    22:00 +5°C° 0 mm 2 mps 626 mmHg 59%
    23:00 +4°C° 0 mm 2 mps 626 mmHg 64%

    29 September, Saturday

    Time Temperature Precipitation Wind Pressure Humidity
    00:00 +4°C° 0 mm 2 mps 626 mmHg 67%
    01:00 +3°C° 0 mm 2 mps 625 mmHg 70%
    02:00 +3°C° 0 mm 2 mps 625 mmHg 73%
    03:00 +3°C° 0 mm 2 mps 625 mmHg 74%
    04:00 +3°C° 0 mm 2 mps 625 mmHg 75%
    05:00 +2°C° 0 mm 2 mps 624 mmHg 76%
    06:00 +4°C° 0 mm 2 mps 625 mmHg 72%
    07:00 +5°C° 0 mm 2 mps 625 mmHg 68%
    08:00 +7°C° 0 mm 1 mps 626 mmHg 63%
    09:00 +9°C° 0 mm 1 mps 626 mmHg 57%
    10:00 +11°C° 0 mm 1 mps 627 mmHg 50%
    11:00 +12°C° 0 mm 1 mps 628 mmHg 44%
    12:00 +13°C° 0 mm 1 mps 628 mmHg 42%
    13:00 +14°C° 0 mm 2 mps 628 mmHg 40%
    14:00 +14°C° 0 mm 2 mps 628 mmHg 38%
    15:00 +14°C° 0 mm 2 mps 627 mmHg 40%
    16:00 +13°C° 0 mm 2 mps 627 mmHg 43%
    17:00 +12°C° 0 mm 2 mps 627 mmHg 45%
    18:00 +9°C° 0 mm 2 mps 627 mmHg 51%
    19:00 +9°C° 0 mm 1 mps 626 mmHg 56%
    20:00 +7°C° 0 mm 1 mps 626 mmHg 62%
    21:00 +6°C° 0 mm 1 mps 626 mmHg 62%
    22:00 +5°C° 0 mm 2 mps 626 mmHg 62%
    23:00 +5°C° 0 mm 2 mps 626 mmHg 62%
    Show more